Flight Track Log - Related Links

Times and Time Zones

All times are in EDT time to prevent confusion due to time zone crossing. See the SWA311 flight status page for this flight to view local times or setup timezone preferences in your user account.

Time Position Orientation Groundspeed Altitude Reporting Facility
EDT Latitude Longitude Course Direction KTS MPH feet Rate Location/Type
Sun 08:10:42 PM 39.1500 -76.6500 153° Southeast 158 182 1,700  Level Potomac TRACON
Sun 08:11:42 PM 39.1000 -76.6167 153° Southeast 201 231 3,800 2,550 Climbing Potomac TRACON
Sun 08:12:42 PM 39.0500 -76.5500 134° Southeast 260 299 6,800 2,954 Climbing Potomac TRACON
Sun 08:14:57 PM 38.8892 -76.4850 163° South 286 329 13,400 2,215 Climbing Washington Center
Sun 08:15:57 PM 38.8011 -76.5506 210° Southwest 313 360 14,000 966 Climbing Washington Center
Sun 08:16:55 PM 38.7153 -76.6133 210° Southwest 329 379 15,300 2,182 Climbing Washington Center
Sun 08:17:58 PM 38.6269 -76.6786 210° Southwest 352 405 18,400 3,174 Climbing Washington Center
Sun 08:18:56 PM 38.5306 -76.7275 202° Southwest 371 427 21,700 1,815 Climbing Washington Center
Sun 08:19:57 PM 38.4286 -76.7128 174° South 358 412 22,000 149 Climbing Washington Center
Sun 08:20:57 PM 38.3225 -76.6981 174° South 363 418 22,000  Level Washington Center
Sun 08:21:55 PM 38.2244 -76.6964 179° South 363 418 22,000 -102 Level Washington Center
Sun 08:22:55 PM 38.1383 -76.7719 215° Southwest 350 403 21,800 -645 Descending Washington Center
Sun 08:23:56 PM 38.0542 -76.8469 215° Southwest 362 417 20,700 -900 Descending Washington Center
Sun 08:24:55 PM 37.9783 -76.9117 214° Southwest 368 423 20,000 -350 Descending Washington Center
Sun 08:25:56 PM 37.9025 -76.9786 215° Southwest 368 423 20,000  Level Washington Center
Sun 08:26:56 PM 37.8244 -77.0561 218° Southwest 362 417 20,000  Level Washington Center
Sun 08:27:55 PM 37.7483 -77.1386 221° Southwest 362 417 20,000  Level Washington Center
Sun 08:28:55 PM 37.6742 -77.2158 220° Southwest 362 417 20,000  Level Washington Center
Sun 08:29:56 PM 37.5939 -77.2875 215° Southwest 357 411 20,000  Level Washington Center
Sun 08:30:57 PM 37.5056 -77.3433 207° Southwest 357 411 20,000  Level Washington Center
Sun 08:31:55 PM 37.4150 -77.4014 207° Southwest 362 417 20,000  Level Washington Center
Sun 08:32:55 PM 37.3139 -77.4617 205° Southwest 367 422 20,000  Level Washington Center
Sun 08:33:56 PM 37.2233 -77.5219 208° Southwest 367 422 20,000  Level Washington Center
Sun 08:34:57 PM 37.1328 -77.5744 205° Southwest 367 422 20,000  Level Washington Center
Sun 08:35:55 PM 37.0422 -77.6319 207° Southwest 372 428 20,000  Level Washington Center
Sun 08:36:55 PM 36.9514 -77.6894 207° Southwest 372 428 20,000  Level Washington Center
Sun 08:37:56 PM 36.8586 -77.7492 207° Southwest 372 428 20,000  Level Washington Center
Sun 08:38:57 PM 36.7678 -77.8036 206° Southwest 372 428 20,000 -50 Level Washington Center
Sun 08:39:56 PM 36.6772 -77.8581 206° Southwest 372 428 19,900 -857 Descending Washington Center
Sun 08:40:56 PM 36.5886 -77.9097 205° Southwest 367 422 18,300 -1,515 Descending Washington Center
Sun 08:41:39 PM 36.5292 -77.9494 208° Southwest 342 394 17,300 -1,377 Descending Washington Center
Sun 08:41:57 PM 36.5061 -77.9589 198° South 355 409 16,900 -1,714 Descending Washington Center
Sun 08:42:28 PM 36.4658 -77.9886 211° Southwest 322 371 15,900 -1,552 Descending Washington Center
Sun 08:42:55 PM 36.4278 -78.0133 208° Southwest 336 387 15,400 -1,500 Descending Washington Center
Sun 08:43:28 PM 36.3856 -78.0378 205° Southwest 316 364 14,400 -1,500 Descending Washington Center
Sun 08:43:55 PM 36.3583 -78.0525 204° Southwest 319 367 13,900 -1,600 Descending Washington Center
Sun 08:44:28 PM 36.3053 -78.0894 209° Southwest 309 356 12,800 -1,475 Descending Washington Center
Sun 08:44:56 PM 36.2822 -78.0992 199° South 319 367 12,400 -1,418 Descending Washington Center
Sun 08:45:23 PM 36.2397 -78.1261 207° Southwest 304 350 11,500 -1,700 Descending Washington Center
Sun 08:45:56 PM 36.1975 -78.1506 205° Southwest 305 351 10,700 -1,418 Descending Washington Center
Sun 08:46:18 PM 36.1722 -78.1675 208° Southwest 293 337 10,200 -1,171 Descending Washington Center
Sun 08:47:18 PM 36.1392 -78.2514 244° Southwest 274 315 9,100 -1,113 Descending Washington Center
Sun 08:47:55 PM 36.1211 -78.3072 248° West 270 311 8,400 -1,180 Descending Washington Center
Sun 08:48:19 PM 36.1078 -78.3403 243° Southwest 262 302 7,900 -885 Descending Washington Center
Sun 08:48:56 PM 36.0944 -78.3836 249° West 263 303 7,500 -982 Descending Washington Center
Sun 08:49:14 PM 36.0917 -78.4092 262° West 256 295 7,000 -984 Descending Washington Center
Sun 08:49:57 PM 36.1350 -78.4286 340° North 182 209 6,500 -885 Descending Washington Center
Sun 08:50:15 PM 36.1500 -78.4114 43° Northeast 259 298 6,100 -393 Descending Washington Center
Sun 08:50:58 PM 36.1861 -78.3792 36° Northeast 124 143 6,100 -98 Level Washington Center
Sun 08:51:16 PM 36.2033 -78.3592 43° Northeast 248 285 6,000 -82 Descending Washington Center
Sun 08:52:11 PM 36.2503 -78.3144 38° Northeast 247 284 6,000  Level Washington Center
Sun 08:53:11 PM 36.2622 -78.2453 78° East 231 266 6,000  Level Washington Center
Sun 08:54:12 PM 36.2075 -78.2692 199° South 217 250 6,000  Level Washington Center
Sun 08:55:11 PM 36.1564 -78.3111 214° Southwest 217 250 6,000  Level Washington Center
Sun 08:56:12 PM 36.0997 -78.3322 197° South 234 269 6,000  Level Washington Center
Sun 08:57:18 PM 36.0275 -78.2964 158° South 259 298 6,000 65 Level Washington Center
Sun 08:57:45 PM 36.0067 -78.2881 162° South 329 379 6,100  Climbing Washington Center
Sun 08:58:19 PM 35.9614 -78.2686 161° South 259 298 6,000 621 Descending Washington Center
Sun 08:58:43 PM 35.9344 -78.2547 157° South 265 305 6,700 2,889 Climbing Washington Center
Sun 08:59:13 PM 35.8994 -78.2383 159° South 262 302 8,600 3,700 Climbing Washington Center
Sun 08:59:43 PM 35.8725 -78.2244 157° South 265 305 10,400 3,800 Climbing Washington Center
Sun 09:00:13 PM 35.8272 -78.2050 161° South 270 311 12,400 3,246 Climbing Washington Center
Sun 09:00:44 PM 35.7983 -78.1889 156° South 272 313 13,700 1,406 Climbing Washington Center
Sun 09:01:17 PM 35.7506 -78.1692 161° South 302 348 13,900 295 Climbing Washington Center
Sun 09:01:45 PM 35.7219 -78.1531 155° Southeast 288 331 14,000  Climbing Washington Center
Sun 09:02:09 PM 35.6764 -78.1336 161° South 303 349 13,900  Descending Washington Center
Sun 09:02:45 PM 35.6433 -78.1122 152° Southeast 293 337 14,000  Climbing Washington Center
Sun 09:03:09 PM 35.6000 -78.0956 163° South 302 348 13,900  Descending Washington Center
Sun 09:03:43 PM 35.5564 -78.0761 160° South 298 343 14,000 98 Climbing Washington Center
Sun 09:04:10 PM 35.5144 -78.0878 193° South 297 342 14,000  Level Washington Center
Sun 09:04:43 PM 35.4786 -78.1069 204° Southwest 290 334 14,000 -95 Level Washington Center
Sun 09:05:13 PM 35.4406 -78.1339 210° Southwest 289 333 13,900  Descending Washington Center
Sun 09:05:43 PM 35.4044 -78.1608 211° Southwest 290 334 14,000 98 Climbing Washington Center
Sun 09:06:14 PM 35.3786 -78.2006 231° Southwest 297 342 14,000  Level Washington Center
Sun 09:06:44 PM 35.3733 -78.2489 262° West 262 302 14,000  Level Washington Center
Sun 09:07:14 PM 35.3764 -78.3050 274° West 308 354 14,000  Level Washington Center
Sun 09:07:44 PM 35.3772 -78.3533 271° West 261 300 14,000 -90 Level Washington Center
Sun 09:08:21 PM 35.3717 -78.4092 263° West 290 334 13,900  Descending Washington Center
Sun 09:08:45 PM 35.3750 -78.4528 275° West 284 327 14,000  Climbing Washington Center
Sun 09:09:27 PM 35.3669 -78.5211 262° West 283 326 13,900  Descending Washington Center
Sun 09:09:45 PM 35.3683 -78.5492 273° West 292 336 14,000  Climbing Washington Center
Sun 09:10:27 PM 35.3603 -78.6203 262° West 287 330 13,900 98 Descending Washington Center
Sun 09:10:46 PM 35.3681 -78.6461 290° West 292 336 14,100  Climbing Washington Center
Sun 09:11:28 PM 35.3789 -78.7153 281° West 290 334 13,900  Descending Washington Center
Sun 09:11:43 PM 35.3842 -78.7433 283° West 287 330 14,100 79 Climbing Washington Center
Sun 09:12:44 PM 35.3942 -78.8381 277° West 293 337 14,000 -120 Descending Washington Center
Sun 09:13:23 PM 35.3947 -78.8967 271° West 254 292 13,900  Descending Washington Center
Sun 09:13:46 PM 35.3981 -78.9275 278° West 283 326 14,000  Climbing Washington Center
Sun 09:14:25 PM 35.4006 -78.9836 273° West 255 293 13,900  Descending Washington Center
Sun 09:14:43 PM 35.4019 -79.0117 273° West 268 308 14,000 77 Climbing Washington Center
Sun 09:15:43 PM 35.4058 -79.0986 273° West 263 303 14,000 -54 Level Washington Center
Sun 09:16:35 PM 35.4053 -79.1800 270° West 260 299 13,900  Descending Washington Center
Sun 09:17:45 PM 35.3594 -79.2492 231° Southwest 242 278 14,000  Climbing Washington Center
Sun 09:18:45 PM 35.2939 -79.2819 202° Southwest 254 292 13,900 -365 Descending Washington Center
Sun 09:19:40 PM 35.3167 -79.3542 291° West 298 343 13,300 -850 Descending Washington Center
Sun 09:20:38 PM 35.3944 -79.3986 335° Northwest 315 362 12,300 -1,261 Descending Washington Center
Sun 09:21:39 PM 35.4733 -79.4128 352° North 299 344 10,800 -1,377 Descending Washington Center
Sun 09:22:40 PM 35.5361 -79.3367 45° Northeast 293 337 9,500 -891 Descending Washington Center
Sun 09:23:47 PM 35.5844 -79.2569 53° Northeast 266 306 8,900 -938 Descending Washington Center
Sun 09:24:48 PM 35.6181 -79.1844 60° Northeast 236 272 7,500 -1,537 Descending Washington Center
Sun 09:25:48 PM 35.6533 -79.1172 57° Northeast 230 265 5,800 -1,417 Descending Washington Center
Sun 09:26:55 PM 35.6869 -79.0444 60° Northeast 212 244 4,500 -750 Descending Washington Center
Sun 09:27:56 PM 35.7136 -78.9892 59° Northeast 180 207 4,200 -517 Descending Washington Center
Sun 09:28:51 PM 35.7503 -78.9397 48° Northeast 215 247 3,500 -1,046 Descending Washington Center
Sun 09:29:45 PM 35.7894 -78.8900 46° Northeast 224 258 2,300 -1,096 Descending Washington Center
Sun 09:30:46 PM 35.8217 -78.8478 47° Northeast 178 205 1,400 -836 Descending Washington Center
Sun 09:31:47 PM 35.8542 -78.8108 43° Northeast 144 166 600 -787 Descending Washington Center
Sun 09:33:00 PM 35.8667 -78.7833 North  Level FlightAware Approximate
Sun 09:40:00 PM 35.8776 -78.7875 North  Level Estimated

Login

Don't have an account? Register now (free) for customized features, flight alerts, and more!